Find STARLINK-37948

NORAD ID: 799501021 Int'l Des: 2026-143X Constellation: starlink operational

Current View

Loading 3D Globe...

About STARLINK-37948

STARLINK-37948 (NORAD 799501021) is a starlink constellation satellite launched Jun 15, 2026

About STARLINK-37948

Description loading...

Upcoming Passes

Passes for default location (London). Set your location on the main map for personalized predictions.

Altitude History

Loading altitude history...

Two-Line Element Set

1 99999C 2026143X 26173.17409721 .00483810 00000-0 721980-4 0 1732
2 99999 97.2816 216.0344 0011233 272.9539 105.5605 16.04425753 17
Epoch: Jun 22, 2026 • Age: 3 hours